TRANSIT 16 [?]

Last updated on Wed Jun 28 2023 00:03:29 GMT+0000 (Coordinated Universal Time)

1 02807U 67048A 23177.80372500 .00000135 00000+0 19402-3 0 9994 2 02807 89.6639 23.6756 0019633 192.9581 177.9881 13.50405164761785

Satellite not in orbit

TRANSIT 16 [?]